Regional Weather Roundup
Issued by NWS

Home | Current Version | Previous Version | Text Only | Print | Product List | Glossary On
Versions: 1 2 3 4 5 6 7 8 9 10 11 12 13 14 15 16 17 18 19 20 21 22 23 24 25 26 27 28 29 30 31 32 33 34 35 36 37 38 39 40 41 42 43 44 45 46 47 48 49 50
000
ASUS43 KBIS 221210
RWRND

NORTH DAKOTA REGIONAL WEATHER ROUNDUP
NATIONAL WEATHER SERVICE BISMARCK ND
700 AM CDT SAT JUL 22 2017

NOTE: "FAIR" INDICATES FEW OR NO CLOUDS BELOW 12,000 FEET WITH NO
SIGNIFICANT WEATHER AND/OR OBSTRUCTIONS TO VISIBILITY.


NDZ001>003-009>011-017-221300-
NORTHWEST NORTH DAKOTA

CITY           SKY/WX    TMP DP  RH WIND       PRES   REMARKS
WILLISTON      PTCLDY    60  47  61 CALM      29.98R
6HR MIN TEMP:  53; 6HR MAX TEMP:  66;

MINOT          CLEAR     64  55  72 W10       29.91R
MINOT AFB      CLEAR     57  54  90 W6        29.90R
$$

NDZ018>021-031>035-040>046-221300-
SOUTHWEST NORTH DAKOTA

CITY           SKY/WX    TMP DP  RH WIND       PRES   REMARKS
BISMARCK       CLEAR     63  61  93 NW8       29.93R
6HR MIN TEMP:  60; 6HR MAX TEMP:  66;

DICKINSON      CLEAR     54  47  77 W6        29.99R
GARRISON         N/A     56  52  86 W6        29.93R
6HR MIN TEMP:  55; 6HR MAX TEMP:  62;

HETTINGER ARPT CLEAR     53  47  79 NW7       30.02R
$$

NDZ004>008-012>016-024-026-027-054-221300-
NORTHEAST NORTH DAKOTA

CITY           SKY/WX    TMP DP  RH WIND       PRES   REMARKS
GRAND FORKS    CLEAR     65  65 100 SW7       29.77R
GRND FRKS AFB  CLEAR     64  64 100 W7        29.78S
DEVILS LAKE    CLEAR     65  62  90 W10       29.84R
$$

NDZ022-023-025-028>030-036>039-047>053-221300-
SOUTHEAST NORTH DAKOTA

CITY           SKY/WX    TMP DP  RH WIND       PRES   REMARKS
FARGO          CLEAR     67  64  90 S7        29.82R
6HR MIN TEMP:  66; 6HR MAX TEMP:  74; 6HR PCP:  0.17;

JAMESTOWN      CLEAR     63  61  93 SW5       29.87R
$$




USA.gov is the U.S. government's official web portal to all federal, state and local government web resources and services.